DW5595 Weather Reports


Display with metric or nautical units.
time (UTC)temp
F
wind
direction
speed
MPH
gust
MPH
rain 1hr
in
rain 24hr
in
rain mn
in
humidity
%
barometer
mb
20260506033025 57 181 0.0 0.0 0.00 0.00 0.00 81 1013.5
20260506031532 57 184 0.0 0.0 0.00 0.00 0.00 79 1013.5
20260506024529 58 184 0.0 0.0 0.00 0.00 0.00 1013.6
20260506023028 59 184 0.0 0.0 0.00 0.00 0.00 1013.6
20260506021529 60 184 0.0 0.0 0.00 0.00 0.00 73 1013.6
20260506020022 61 184 0.0 0.0 0.00 0.00 0.00 71 1013.8
20260506014523 62 184 0.0 0.0 0.00 0.00 0.00 65 1013.8
20260506013019 63 184 0.0 0.0 0.00 0.00 0.00 64 1013.5
20260506011527 64 184 0.0 0.0 0.00 0.00 0.00 60 1013.5
20260506010046 66 184 0.0 0.0 0.00 0.00 0.00 55 1013.4
20260506004528 68 184 0.0 0.0 0.00 0.00 0.00 53 1013.3
20260506003024 69 184 0.0 0.0 0.00 0.00 0.00 49 1013.3
20260506001526 71 161 0.0 3.0 0.00 0.00 0.00 47 1013.1
20260506000020 71 167 0.0 2.0 0.00 0.00 0.00 46 1013.2
20260505234519 73 146 0.0 4.0 0.00 0.00 0.00 43 1013.1
20260505231513 74 144 2.0 8.0 0.00 0.00 0.00 42 1012.7
20260505230008 74 148 2.0 10.0 0.00 0.00 0.00 40 1012.9
20260505224522 75 174 1.0 10.0 0.00 0.00 0.00 38 1013.0
20260505223021 75 157 3.0 11.0 0.00 0.00 0.00 39 1013.1
20260505221523 75 175 3.0 11.0 0.00 0.00 0.00 38 1012.9
20260505220025 75 167 3.0 10.0 0.00 0.00 0.00 38 1012.9
20260505214516 76 143 4.0 12.0 0.00 0.00 0.00 37 1013.0
20260505211526 76 128 3.0 14.0 0.00 0.00 0.00 38 1013.3
20260505210025 76 130 3.0 17.0 0.00 0.00 0.00 36 1013.3
20260505204525 76 247 4.0 12.0 0.00 0.00 0.00 36 1013.4
20260505203029 76 145 2.0 10.0 0.00 0.00 0.00 38 1013.7
20260505201519 76 148 3.0 13.0 0.00 0.00 0.00 36 1013.8
20260505200018 76 182 2.0 10.0 0.00 0.00 0.00 38 1014.0
20260505194516 76 94 5.0 13.0 0.00 0.00 0.00 39 1013.9
20260505193028 76 153 5.0 18.0 0.00 0.00 0.00 38 1014.1
20260505191523 76 173 3.0 12.0 0.00 0.00 0.00 39 1014.5
20260505190034 76 174 3.0 11.0 0.00 0.00 0.00 38 1014.9
20260505184523 76 161 6.0 19.0 0.00 0.00 0.00 35 1015.3
20260505183021 76 95 5.0 14.0 0.00 0.00 0.00 38 1015.2
20260505181519 76 144 2.0 11.0 0.00 0.00 0.00 41 1015.4
20260505180016 75 132 3.0 18.0 0.00 0.00 0.00 40 1015.6
20260505174525 74 220 3.0 11.0 0.00 0.00 0.00 41 1015.7
20260505173036 75 164 4.0 14.0 0.00 0.00 0.00 42 1015.7
20260505171538 74 123 2.0 13.0 0.00 0.00 0.00 42 1015.7
20260505170023 75 144 5.0 10.0 0.00 0.00 0.00 41 1015.9
20260505164523 75 162 1.0 11.0 0.00 0.00 0.00 42 1015.9
20260505163020 74 33 1.0 15.0 0.00 0.00 0.00 44 1016.0
20260505161515 73 162 2.0 6.0 0.00 0.00 0.00 48 1016.1
20260505153006 70 231 3.0 11.0 0.00 0.00 0.00 51 1016.7
20260505121514 51 165 0.0 2.0 0.00 0.00 0.00 90 1015.9
20260505120048 49 140 0.0 0.0 0.00 0.00 0.00 90 1015.8
20260505114510 49 140 0.0 0.0 0.00 0.00 0.00 90 1015.8
20260505113017 48 140 0.0 0.0 0.00 0.00 0.00 91 1015.7
20260505111521 46 159 0.0 0.0 0.00 0.00 0.00 91 1015.6
20260505101521 45 163 0.0 0.0 0.00 0.00 0.00 90 1015.8
20260505100026 46 163 0.0 0.0 0.00 0.00 0.00 89 1015.8
20260505094524 46 163 0.0 0.0 0.00 0.00 0.00 88 1015.7
20260505093022 46 163 0.0 0.0 0.00 0.00 0.00 87 1015.6
20260505091527 47 163 0.0 0.0 0.00 0.00 0.00 85 1015.5
20260505090036 48 163 0.0 0.0 0.00 0.00 0.00 83 1015.4
20260505084517 49 163 0.0 0.0 0.00 0.00 0.00 80 1015.2
20260505083026 50 148 0.0 1.0 0.00 0.00 0.00 80 1015.0
20260505081527 50 157 0.0 2.0 0.00 0.00 0.00 81 1014.8
20260505080021 50 201 0.0 2.0 0.00 0.00 0.00 80 1014.8
20260505074524 49 137 0.0 0.0 0.00 0.00 0.00 83 1014.5
20260505073040 49 137 0.0 0.0 0.00 0.00 0.00 81 1014.5
20260505071521 50 137 0.0 0.0 0.00 0.00 0.00 79 1014.7
20260505070021 50 136 1.0 3.0 0.00 0.00 0.00 80 1014.6
20260505064533 50 138 0.0 2.0 0.00 0.00 0.00 79 1014.6
20260505063012 51 148 0.0 3.0 0.00 0.00 0.00 79 1014.7
20260505061540 52 166 0.0 0.0 0.00 0.00 0.00 73 1014.5
20260505060024 54 166 0.0 0.0 0.00 0.00 0.00 72 1014.6
20260505054542 55 166 0.0 0.0 0.00 0.00 0.00 66 1014.7
20260505053030 56 166 0.0 0.0 0.00 0.00 0.00 66 1014.7
20260505051520 57 137 0.0 1.0 0.00 0.00 0.00 65 1014.8
20260505041525 61 127 0.0 4.0 0.00 0.00 0.00 54 1014.5
20260505040023 61 134 0.0 4.0 0.00 0.00 0.00 54 1014.6